Погода в Великом Жванчике

Украина / Хмельницкая область     48°45′42″N   26°57′47″E
темп.,
°C
ветер,
м/с
пор.,
м/с
влажн.,
%
обл.,
%
осадки,
мм/ч
давл.,
гПа
погр.,
м
29 июля, чт
чт2900:00+19ююз1177100 6.3 101311
03:00+19ююз34836 6.3 101265
06:00+18ююз228217 0.0 101115
09:00+24ююз12640 0.0 1011212
12:00+29з33490 0.0 1010825
15:00+30зсз454468 0.0 10101421
18:00+25зюз7969100 0.8 1010573
21:00+19з249313 8.3 101181
30 июля, пт
пт3000:00+19сз39920 1.1 1012203
03:00+18сз36900 1.1 1013101
06:00+17сз22900 0.0 101333
09:00+22сз23720 0.0 1013287
12:00+26зсз23500 0.0 10131719
15:00+28з34440 0.0 10122054
18:00+28зсз23440 0.0 10111666
21:00+22зсз11630 0.0 101211
31 июля, сб
сб3100:00+20ююз11682 0.0 101211
03:00+19ю22714 0.0 101111
06:00+18ююв227329 0.0 101120
09:00+23ююв466315 0.0 1011297
12:00+28ю57513 0.0 1011887
15:00+30ю67454 0.0 10101419
18:00+29ююв57510 0.0 10091256
21:00+24юв412680 0.0 1008224
1 августа, вс
вс100:00+20ююз2483100 0.6 100957
03:00+19зсз3885100 0.6 1009179
06:00+17зсз249767 0.0 1011131
09:00+20ссз347918 0.0 1012549
12:00+25с12574 0.0 1012895
15:00+28юв22470 0.0 10111125
18:00+28юв44524 0.0 1009963
21:00+24юв3568100 0.0 100979
2 августа, пн
пн200:00+23ю41170100 0.0 1008288
03:00+21юз0163100 0.0 100612
06:00+18юв227490 0.0 100713
09:00+25ююз355788 0.1 1006246
12:00+29ююз454865 0.0 1006663
15:00+25ююз6677100 7.6 1006579
18:00+24сз58757 6.9 1008757
21:00+18сз611791 7.0 1012532